Terminal Aerodrome Forecast
Issued by NWS Portland, OR

Home | Current Version | Previous Version | Text Only | Print | Product List | Glossary On
Versions: 1 2 3 4 5 6 7 8 9 10 11 12 13 14 15 16 17
000
FTUS46 KPQR 230520
TAFEUG
TAF
KEUG 230520Z 2306/2406 VRB03KT P6SM SCT090
     FM231300 19004KT 4SM BR OVC012
     FM231800 19004KT P6SM SCT015 BKN100
     FM232000 22005KT P6SM SCT100
     FM232300 34005KT P6SM SCT120=

USA.gov is the U.S. government's official web portal to all federal, state and local government web resources and services.